Regional Weather Roundup
Issued by NWS Cleveland, OH

Home | Current Version | Previous Version | Graphics & Text | Print | Product List | Glossary On
Versions: 1 2 3 4 5 6 7 8 9 10 11 12 13 14 15 16 17 18 19 20 21 22 23 24 25 26 27 28 29 30 31 32 33 34 35 36 37 38 39 40 41 42 43 44 45 46 47 48 49 50
000
ASUS41 KCLE 201400
RWRCLE
OHIO REGIONAL WEATHER ROUNDUP
NATIONAL WEATHER SERVICE WILMINGTON, OH
1000 AM EDT SAT SEP 20 2014

NOTE: "FAIR" INDICATES FEW OR NO CLOUDS BELOW 12,000 FEET WITH NO
SIGNIFICANT WEATHER AND/OR OBSTRUCTIONS TO VISIBILITY.

OHZ001>008-015>018-024>027-034-035-043-044-201500-
   NORTHWEST OHIO

CITY           SKY/WX    TMP DP  RH WIND       PRES   REMARKS
DEFIANCE       CLOUDY    63  55  75 SW7       30.03R
FINDLAY        PTSUNNY   69  59  70 S9        30.03R
TOLEDO EXPRESS CLOUDY    63  55  75 SW8       30.01S
TOLEDO METCALF PTSUNNY   67  57  70 SW14      30.02S
LIMA           PTSUNNY   68  58  70 SW12      30.05R
$$

OHZ009>014-019>023-028>033-038-089-201500-
   NORTHEAST OHIO

CITY           SKY/WX    TMP DP  RH WIND       PRES   REMARKS
CLE-HOPKINS    MOSUNNY   66  60  81 S14       30.08S
CLE-LAKEFRONT  SUNNY     69  60  73 S14       30.05R
CUY CO. ARPT   MOSUNNY   68  63  83 SW14      30.06F
LORAIN-ELYRIA  SUNNY     70  61  73 S12       30.06S
ASHTABULA      SUNNY     65  58  78 SW15      30.08F
AKRON-CANTON   PTSUNNY   67  58  72 SW15      30.10F
WOOSTER        NOT AVBL
MANSFIELD      SUNNY     66  61  84 S13       30.08S
YOUNGSTOWN     PTSUNNY   65  58  78 S10G18    30.11F
$$

OHZ042-051>053-060>062-070>072-077>081-201500-
  SOUTHWEST OHIO

CITY           SKY/WX    TMP DP  RH WIND       PRES   REMARKS
CINC-COVINGTON MOSUNNY   69  63  81 SW10G20   30.10S
CINC-LUNKEN    MOSUNNY   69  63  81 S8        30.11S
HAMILTON       MOSUNNY   69  63  81 CALM      30.10S
DAYTON         NOT AVBL
WRIGHT-PAT AFB MOSUNNY   68  63  83 S10       30.08S
DAYTON GENERAL MOSUNNY   67  62  84 S10       30.09S
WILMINGTON     SUNNY     69  62  78 SW17G23   30.10S
$$

OHZ036-037-039>041-045>050-054>059-063>069-073>076-082>088-201500-
  CENTRAL AND SOUTHEAST OHIO

CITY           SKY/WX    TMP DP  RH WIND       PRES   REMARKS
COLUMBUS       PTSUNNY   70  60  70 S12       30.09F
OSU AIRPORT    MOSUNNY   68  61  78 SW8G18    30.09S
BOLTON FIELD   SUNNY     66  63  88 S10G16    30.10S
RICKENBACK AFB NOT AVBL
NEWARK         PTSUNNY   68  60  75 S9        30.10F
MARION         MOSUNNY   66  60  81 SW13      30.07F
LANCASTER      PTSUNNY   71  60  68 S10       30.11F
ZANESVILLE     MOSUNNY   68  58  70 S9        30.12F
NEW PHILLY     SUNNY     68  59  73 S7        30.12F
$$



USA.gov is the U.S. government's official web portal to all federal, state and local government web resources and services.